Change the Weather History Date:

Saturday, March 1, 2014

  Actual Average (KJYM) Record (KJYM)
Temperature  
Mean Temperature 22 °F -  
Max Temperature 28 °F 39 °F 58 °F (1976)
Min Temperature 16 °F 19 °F -14 °F (1967)
Degree Days  
Heating Degree Days 42    
Moisture  
Dew Point 16 °F    
Average Humidity 72    
Maximum Humidity 92    
Minimum Humidity 50    
Precipitation  
Precipitation 0.00 in - - ()
Sea Level Pressure  
Sea Level Pressure 30.10 in    
Wind  
Wind Speed 6 mph (WNW)    
Max Wind Speed 12 mph    
Max Gust Speed -    
Visibility 8 miles    
Events Snow    
Averages and records for this station are not official NWS values.
T = Trace of Precipitation, MM = Missing Value Source: NWS Daily Summary

Daily Weather History Graph

Daily Weather History Graph

Search for Another Location

Airport or City:

Trip Planner

Search our weather history database for the weather conditions in past years. The results will help you decide how hot, cold, wet, or windy it might be!

Date:

Astronomy

Mar. 01, 2014 Rise Set
Actual Time 7:15 AM EST 6:30 PM EST
Civil Twilight 6:47 AM EST 6:58 PM EST
Nautical Twilight 6:14 AM EST 7:30 PM EST
Astronomical Twilight 5:42 AM EST 8:03 PM EST
Moon 7:07 AM EST (3/1) 7:18 PM EST (3/1)
Length of Visible Light 12h 11m
Length of Day
11h 15m
New Moon, 0% of the Moon is Illuminated
Mar 1
New Moon
Mar 8
First Quarter
Mar 16
Full
Mar 23
Last Quarter
Mar 30
New

Hourly Weather History & Observations

Time (EST) Temp. Windchill Dew Point Humidity Pressure Visibility Wind Dir Wind Speed Gust Speed Precip Events Conditions
12:15 AM 21.6 °F 11.3 °F 9.3 °F 59% 30.02 in 10.0 mi SSE 9.2 mph - N/A   Clear
12:35 AM 21.2 °F 12.6 °F 9.3 °F 60% 30.01 in 10.0 mi South 6.9 mph - N/A   Clear
12:55 AM 21.7 °F 12.3 °F 9.5 °F 59% 30.01 in 10.0 mi SSE 8.1 mph - N/A   Clear
1:15 AM 22.1 °F - 9.7 °F 59% 30.02 in 10.0 mi Calm Calm - N/A   Scattered Clouds
1:35 AM 23.5 °F 16.4 °F 9.3 °F 55% 30.01 in 10.0 mi South 5.8 mph - N/A   Scattered Clouds
1:55 AM 25.9 °F 19.2 °F 9.5 °F 50% 30.01 in 10.0 mi South 5.8 mph - N/A   Mostly Cloudy
2:15 AM 26.2 °F 18.6 °F 10.0 °F 50% 30.01 in 10.0 mi South 6.9 mph - N/A   Overcast
2:35 AM 25.7 °F 20.1 °F 10.4 °F 52% 30.00 in 10.0 mi SSW 4.6 mph - N/A   Mostly Cloudy
2:55 AM 25.7 °F 19.0 °F 10.6 °F 53% 30.00 in 10.0 mi SSW 5.8 mph - N/A   Mostly Cloudy
3:15 AM 25.5 °F 21.3 °F 11.3 °F 55% 30.00 in 10.0 mi SSW 3.5 mph - N/A   Overcast
3:35 AM 25.5 °F 19.9 °F 11.5 °F 55% 30.00 in 10.0 mi SSW 4.6 mph - N/A   Overcast
3:55 AM 25.7 °F 20.1 °F 11.3 °F 55% 30.00 in 10.0 mi SSW 4.6 mph - N/A   Mostly Cloudy
4:15 AM 25.7 °F 21.5 °F 12.2 °F 57% 30.00 in 10.0 mi SSW 3.5 mph - N/A   Mostly Cloudy
4:35 AM 25.3 °F 19.7 °F 12.6 °F 58% 30.01 in 10.0 mi SSW 4.6 mph - N/A   Scattered Clouds
4:55 AM 25.5 °F 19.9 °F 12.6 °F 58% 30.01 in 10.0 mi SW 4.6 mph - N/A   Scattered Clouds
5:15 AM 25.3 °F 21.1 °F 12.6 °F 58% 30.01 in 10.0 mi SW 3.5 mph - N/A   Mostly Cloudy
5:35 AM 25.7 °F - 13.5 °F 60% 30.01 in 10.0 mi Calm Calm - N/A   Overcast
5:55 AM 25.7 °F 21.5 °F 13.3 °F 59% 30.03 in 10.0 mi WNW 3.5 mph - N/A   Overcast
6:15 AM 24.6 °F - 14.0 °F 64% 30.03 in 10.0 mi Calm Calm - N/A   Overcast
6:35 AM 24.6 °F - 14.4 °F 65% 30.04 in 10.0 mi Calm Calm - N/A   Overcast
6:55 AM 25.5 °F - 13.5 °F 60% 30.03 in 10.0 mi Calm Calm - N/A   Overcast
7:15 AM 25.5 °F - 14.5 °F 63% 30.03 in 10.0 mi Calm Calm - N/A   Overcast
7:35 AM 25.9 °F - 15.6 °F 65% 30.04 in 10.0 mi Calm Calm - N/A   Overcast
7:54 AM 25.5 °F 21.3 °F 16.5 °F 69% 30.05 in 10.0 mi SW 3.5 mph - N/A   Overcast
8:15 AM 26.6 °F - 15.1 °F 62% 30.04 in 10.0 mi Calm Calm - N/A   Overcast
8:35 AM 27.3 °F - 16.2 °F 63% 30.05 in 10.0 mi Calm Calm - N/A   Overcast
8:54 AM 27.5 °F 23.6 °F 15.8 °F 61% 30.05 in 10.0 mi WSW 3.5 mph - N/A   Overcast
9:15 AM 27.9 °F 22.6 °F 17.2 °F 64% 30.07 in 10.0 mi West 4.6 mph - N/A   Overcast
9:35 AM 28.0 °F 24.2 °F 16.5 °F 62% 30.08 in 10.0 mi West 3.5 mph - N/A   Overcast
9:55 AM 28.0 °F 22.8 °F 16.9 °F 63% 30.07 in 10.0 mi West 4.6 mph - N/A   Overcast
10:15 AM 28.4 °F 23.3 °F 17.4 °F 63% 30.09 in 10.0 mi WNW 4.6 mph - N/A   Overcast
10:35 AM 28.0 °F 18.6 °F 20.3 °F 73% 30.10 in 10.0 mi WNW 10.4 mph - N/A   Overcast
10:55 AM 26.6 °F 17.5 °F 21.4 °F 81% 30.10 in 7.0 mi NW 9.2 mph - N/A   Overcast
11:15 AM 26.4 °F 17.3 °F 22.3 °F 84% 30.10 in 5.0 mi NNW 9.2 mph - N/A   Overcast
11:35 AM 25.7 °F 18.0 °F 23.0 °F 89% 30.10 in 3.0 mi NW 6.9 mph - N/A   Overcast
11:55 AM 25.5 °F 18.7 °F 23.2 °F 91% 30.09 in 2.5 mi NNW 5.8 mph - N/A   Overcast
12:15 PM 25.3 °F 16.0 °F 23.0 °F 91% 30.12 in 3.0 mi NNW 9.2 mph - N/A   Overcast
12:35 PM 25.2 °F 18.3 °F 22.8 °F 91% 30.13 in 4.0 mi WNW 5.8 mph - N/A   Overcast
12:55 PM 25.2 °F 18.3 °F 22.1 °F 88% 30.13 in 5.0 mi NW 5.8 mph - N/A   Overcast
1:15 PM 25.0 °F 16.3 °F 21.2 °F 86% 30.12 in 5.0 mi NNW 8.1 mph - N/A   Overcast
1:34 PM 25.3 °F 19.7 °F 19.9 °F 80% 30.11 in 7.0 mi WNW 4.6 mph - N/A   Overcast
1:55 PM 26.1 °F 19.4 °F 19.8 °F 77% 30.11 in 7.0 mi WNW 5.8 mph - N/A   Overcast
2:15 PM 25.5 °F 16.9 °F 18.5 °F 75% 30.11 in 10.0 mi NW 8.1 mph - N/A   Overcast
2:34 PM 25.7 °F 17.1 °F 18.7 °F 75% 30.12 in 10.0 mi NW 8.1 mph - N/A   Overcast
2:55 PM 25.7 °F 21.5 °F 19.0 °F 76% 30.12 in 10.0 mi WNW 3.5 mph - N/A   Overcast
3:15 PM 25.7 °F 18.0 °F 18.9 °F 75% 30.13 in 7.0 mi NW 6.9 mph - N/A   Overcast
3:35 PM 25.7 °F 18.0 °F 18.3 °F 74% 30.13 in 10.0 mi WNW 6.9 mph - N/A   Overcast
3:55 PM 26.1 °F 18.4 °F 18.3 °F 73% 30.12 in 10.0 mi WNW 6.9 mph - N/A   Overcast
4:15 PM 25.7 °F 19.0 °F 18.5 °F 74% 30.13 in 10.0 mi West 5.8 mph - N/A   Overcast
4:35 PM 25.5 °F 18.7 °F 18.1 °F 74% 30.13 in 10.0 mi WNW 5.8 mph - N/A   Overcast
4:55 PM 25.5 °F 16.9 °F 17.4 °F 71% 30.14 in 10.0 mi WNW 8.1 mph - N/A   Overcast
5:15 PM 25.3 °F 17.6 °F 17.1 °F 71% 30.14 in 10.0 mi WNW 6.9 mph - N/A   Overcast
5:35 PM 25.0 °F 16.3 °F 16.5 °F 70% 30.14 in 10.0 mi West 8.1 mph - N/A   Overcast
5:55 PM 24.8 °F 16.9 °F 16.7 °F 71% 30.16 in 10.0 mi WNW 6.9 mph - N/A   Overcast
6:15 PM 24.6 °F 15.1 °F 16.5 °F 71% 30.17 in 10.0 mi NW 9.2 mph - N/A   Overcast
6:35 PM 23.7 °F 17.8 °F 18.5 °F 80% 30.16 in 7.0 mi NNW 4.6 mph - N/A   Overcast
6:55 PM 23.7 °F 16.6 °F 17.6 °F 77% 30.17 in 10.0 mi NW 5.8 mph - N/A   Overcast
7:15 PM 23.2 °F 12.0 °F 18.0 °F 80% 30.18 in 7.0 mi NNW 11.5 mph - N/A Snow Light Snow
7:34 PM 22.1 °F 11.3 °F 18.1 °F 85% 30.19 in 1.8 mi NNW 10.4 mph - N/A Snow Light Snow
7:55 PM 21.2 °F 11.7 °F 18.7 °F 90% 30.19 in 1.2 mi NNW 8.1 mph - N/A Snow Snow
8:15 PM 20.8 °F 11.2 °F 18.9 °F 92% 30.19 in 1.0 mi NNW 8.1 mph - N/A Snow Snow
8:35 PM 20.1 °F 9.5 °F 18.0 °F 91% 30.19 in 1.0 mi NNW 9.2 mph - N/A Snow Snow
8:55 PM 19.9 °F 12.1 °F 17.8 °F 91% 30.20 in 2.5 mi NW 5.8 mph - N/A Snow Light Snow
9:15 PM 19.2 °F 9.3 °F 16.7 °F 90% 30.21 in 1.2 mi NW 8.1 mph - N/A Snow Light Snow
9:35 PM 18.9 °F 8.0 °F 16.7 °F 91% 30.21 in 1.2 mi NNW 9.2 mph - N/A Snow Light Snow
9:55 PM 18.5 °F 11.7 °F 16.5 °F 92% 30.21 in 1.0 mi NW 4.6 mph - N/A Snow Snow
10:15 PM 18.3 °F 11.5 °F 16.2 °F 91% 30.21 in 1.0 mi NW 4.6 mph - N/A Snow Snow
10:35 PM 17.8 °F 7.5 °F 15.6 °F 91% 30.23 in 1.5 mi NNW 8.1 mph - N/A Snow Light Snow
10:55 PM 17.6 °F 8.2 °F 14.9 °F 89% 30.23 in 3.0 mi NNW 6.9 mph - N/A Snow Light Snow
11:15 PM 17.6 °F 8.2 °F 14.9 °F 89% 30.24 in 2.0 mi NNW 6.9 mph - N/A Snow Light Snow
11:35 PM 17.1 °F 6.6 °F 13.8 °F 87% 30.24 in 1.5 mi North 8.1 mph - N/A Snow Light Snow
11:55 PM 16.3 °F 7.8 °F 13.8 °F 90% 30.22 in 2.5 mi North 5.8 mph - N/A Snow Light Snow